KLM1845 EHAM-LOWW

Flight info

Callsign KLM1845
Flight time 1h 25m
Altitude 37000
Route EDUPO Z739 MISGO DCT BADGO DCT SWALM DCT GASKA DCT ENITA DCT ETVIS DCT BUDWA DCT BUDEX BUDEX2W
Aircraft B738/M-SDE2E3FGHIRWXY/LB1

Departure

Time 2026-04-17 11:14
Airport Amsterdam Airport Schiphol (EHAM)

Arrival

Time 2026-04-17 12:39
Airport Vienna International Airport (LOWW)
Time Latitude Longitude Altitude Speed Heading
2026-04-17 10:47 52.30898 4.77111 -2 ft 0 kts
2026-04-17 11:06 52.30889 4.77111 -2 ft 3 kts
2026-04-17 11:06 52.30875 4.77111 -2 ft 0 kts 359°
2026-04-17 11:10 52.30877 4.77117 -2 ft 2 kts 49°
2026-04-17 11:10 52.30875 4.77169 -2 ft 9 kts 106°
2026-04-17 11:11 52.30846 4.77286 -2 ft 13 kts 106°
2026-04-17 11:11 52.30835 4.77426 -2 ft 12 kts 102°
2026-04-17 11:11 52.30763 4.77463 -2 ft 12 kts 184°
2026-04-17 11:11 52.30682 4.77457 -2 ft 12 kts 172°
2026-04-17 11:12 52.30608 4.77509 -2 ft 11 kts 153°
2026-04-17 11:12 52.30540 4.77568 -2 ft 11 kts 151°
2026-04-17 11:12 52.30473 4.77627 -2 ft 11 kts 153°
2026-04-17 11:12 52.30408 4.77618 -2 ft 8 kts 228°
2026-04-17 11:13 52.30388 4.77570 -3 ft 10 kts 237°
2026-04-17 11:13 52.30232 4.77166 -4 ft 75 kts 238°
2026-04-17 11:13 52.29852 4.76174 -4 ft 129 kts 238°
2026-04-17 11:13 52.29298 4.74752 119 ft 160 kts 237°
2026-04-17 11:14 52.28740 4.73167 719 ft 161 kts 237°
2026-04-17 11:14 52.28156 4.71661 1440 ft 154 kts 235°
2026-04-17 11:14 52.27555 4.70153 1895 ft 169 kts 234°
2026-04-17 11:14 52.26724 4.68626 2146 ft 192 kts 215°
2026-04-17 11:15 52.25472 4.67752 2394 ft 207 kts 188°
2026-04-17 11:15 52.24034 4.68060 2841 ft 217 kts 157°
2026-04-17 11:15 52.22910 4.69735 3346 ft 227 kts 124°
2026-04-17 11:15 52.22207 4.72064 3952 ft 231 kts 120°
2026-04-17 11:16 52.21487 4.74406 4680 ft 231 kts 121°
2026-04-17 11:16 52.20747 4.76743 5366 ft 233 kts 121°
2026-04-17 11:16 52.19936 4.79153 5652 ft 254 kts 123°
2026-04-17 11:16 52.19026 4.81704 6115 ft 265 kts 123°
2026-04-17 11:17 52.18136 4.84381 6785 ft 271 kts 120°
2026-04-17 11:17 52.17282 4.87151 7416 ft 276 kts 120°
2026-04-17 11:17 52.16438 4.89935 8090 ft 280 kts 120°
2026-04-17 11:17 52.15569 4.92795 8731 ft 285 kts 120°
2026-04-17 11:18 52.14680 4.95711 9411 ft 290 kts 120°
2026-04-17 11:18 52.13775 4.98671 10142 ft 294 kts 120°
2026-04-17 11:18 52.12846 5.01693 10617 ft 307 kts 120°
2026-04-17 11:18 52.11847 5.04919 10774 ft 330 kts 120°
2026-04-17 11:19 52.10778 5.08364 10969 ft 351 kts 120°
2026-04-17 11:19 52.09660 5.11968 11408 ft 361 kts 120°
2026-04-17 11:19 52.08522 5.15641 12051 ft 365 kts 120°
2026-04-17 11:19 52.07373 5.19346 12761 ft 369 kts 120°
2026-04-17 11:20 52.06214 5.23075 13464 ft 372 kts 120°
2026-04-17 11:20 52.05034 5.26858 14143 ft 377 kts 120°
2026-04-17 11:20 52.03857 5.30626 14767 ft 381 kts 120°
2026-04-17 11:20 52.02650 5.34483 15407 ft 385 kts 120°
2026-04-17 11:21 52.01427 5.38381 16050 ft 389 kts 120°
2026-04-17 11:21 52.00193 5.42309 16682 ft 394 kts 120°
2026-04-17 11:21 51.98941 5.46288 17315 ft 398 kts 120°
2026-04-17 11:21 51.97673 5.50307 17948 ft 402 kts 120°
2026-04-17 11:22 51.96391 5.54367 18563 ft 407 kts 120°
2026-04-17 11:22 51.95092 5.58476 19097 ft 410 kts 120°
2026-04-17 11:22 51.93782 5.62610 19650 ft 414 kts 120°
2026-04-17 11:22 51.92463 5.66768 20175 ft 418 kts 120°
2026-04-17 11:23 51.91124 5.70978 20709 ft 421 kts 120°
2026-04-17 11:23 51.89796 5.75152 21212 ft 425 kts 120°
2026-04-17 11:23 51.88434 5.79421 21726 ft 428 kts 120°
2026-04-17 11:23 51.87059 5.83723 22229 ft 432 kts 120°
2026-04-17 11:24 51.85674 5.88047 22732 ft 435 kts 120°
2026-04-17 11:24 51.84276 5.92409 23249 ft 438 kts 120°
2026-04-17 11:24 51.82865 5.96803 23723 ft 442 kts 120°
2026-04-17 11:24 51.81440 6.01232 24131 ft 446 kts 119°
2026-04-17 11:25 51.80002 6.05690 24516 ft 449 kts 119°
2026-04-17 11:25 51.78573 6.10116 24903 ft 452 kts 119°
2026-04-17 11:25 51.77113 6.14628 25282 ft 455 kts 119°
2026-04-17 11:25 51.75641 6.19167 25647 ft 458 kts 119°
2026-04-17 11:26 51.74158 6.23735 26017 ft 461 kts 119°
2026-04-17 11:26 51.72662 6.28332 26370 ft 464 kts 119°
2026-04-17 11:26 51.71156 6.32952 26722 ft 467 kts 119°
2026-04-17 11:26 51.69642 6.37586 27066 ft 470 kts 119°
2026-04-17 11:27 51.68114 6.42256 27393 ft 473 kts 119°
2026-04-17 11:27 51.66575 6.46953 27715 ft 476 kts 119°
2026-04-17 11:27 51.65024 6.51675 28035 ft 478 kts 119°
2026-04-17 11:27 51.63483 6.56358 28348 ft 481 kts 119°
2026-04-17 11:28 51.61911 6.61126 28647 ft 483 kts 119°
2026-04-17 11:28 51.60330 6.65912 28997 ft 485 kts 119°
2026-04-17 11:28 51.58741 6.70713 29305 ft 487 kts 119°
2026-04-17 11:28 51.57144 6.75528 29577 ft 490 kts 119°
2026-04-17 11:29 51.55533 6.80375 29853 ft 493 kts 118°
2026-04-17 11:29 51.53913 6.85242 30130 ft 495 kts 118°
2026-04-17 11:29 51.52286 6.90120 30458 ft 495 kts 118°
2026-04-17 11:29 51.50659 6.94988 30809 ft 494 kts 118°
2026-04-17 11:30 51.49056 6.99776 31164 ft 493 kts 118°
2026-04-17 11:30 51.47433 7.04613 31470 ft 493 kts 118°
2026-04-17 11:30 51.45803 7.09462 31751 ft 494 kts 119°
2026-04-17 11:30 51.44171 7.14308 32060 ft 494 kts 119°
2026-04-17 11:31 51.42538 7.19146 32400 ft 493 kts 119°
2026-04-17 11:31 51.40904 7.23978 32722 ft 493 kts 118°
2026-04-17 11:31 51.39267 7.28810 33024 ft 493 kts 118°
2026-04-17 11:31 51.37629 7.33635 33331 ft 493 kts 118°
2026-04-17 11:32 51.35994 7.38443 33645 ft 493 kts 118°
2026-04-17 11:32 51.34354 7.43255 33919 ft 493 kts 118°
2026-04-17 11:32 51.32733 7.48003 34191 ft 493 kts 118°
2026-04-17 11:32 51.31092 7.52801 34511 ft 491 kts 118°
2026-04-17 11:33 51.29454 7.57581 34790 ft 490 kts 118°
2026-04-17 11:33 51.27816 7.62349 35025 ft 490 kts 118°
2026-04-17 11:33 51.26174 7.67123 35268 ft 490 kts 118°
2026-04-17 11:33 51.24531 7.71890 35523 ft 490 kts 118°
2026-04-17 11:34 51.22887 7.76651 35763 ft 489 kts 118°
2026-04-17 11:34 51.21244 7.81402 36011 ft 489 kts 118°
2026-04-17 11:34 51.19621 7.86084 36235 ft 489 kts 118°
2026-04-17 11:34 51.17975 7.90823 36482 ft 488 kts 118°
2026-04-17 11:35 51.16330 7.95550 36740 ft 487 kts 118°
2026-04-17 11:35 51.14687 8.00266 36985 ft 487 kts 119°
2026-04-17 11:35 51.13041 8.04978 37173 ft 487 kts 119°
2026-04-17 11:35 51.11389 8.09700 37225 ft 490 kts 118°
2026-04-17 11:36 51.08089 8.19106 37223 ft 490 kts 118°
2026-04-17 11:36 51.04775 8.28516 37212 ft 485 kts 119°
2026-04-17 11:37 51.01484 8.37829 37212 ft 482 kts 119°
2026-04-17 11:37 50.98209 8.47061 37215 ft 480 kts 119°
2026-04-17 11:38 50.94954 8.56203 37232 ft 479 kts 119°
2026-04-17 11:38 50.91671 8.65393 37236 ft 479 kts 119°
2026-04-17 11:39 50.88369 8.74601 37236 ft 482 kts 119°
2026-04-17 11:39 50.85044 8.83841 37236 ft 484 kts 119°
2026-04-17 11:40 50.81716 8.93055 37234 ft 487 kts 119°
2026-04-17 11:40 50.78344 9.02359 37236 ft 489 kts 119°
2026-04-17 11:41 50.74951 9.11689 37234 ft 490 kts 119°
2026-04-17 11:41 50.71546 9.21021 37231 ft 491 kts 119°
2026-04-17 11:42 50.68312 9.30432 37227 ft 491 kts 117°
2026-04-17 11:42 50.65172 9.39984 37232 ft 490 kts 116°
2026-04-17 11:43 50.62014 9.49495 37227 ft 489 kts 117°
2026-04-17 11:43 50.58832 9.58948 37225 ft 488 kts 117°
2026-04-17 11:44 50.55667 9.68282 37224 ft 486 kts 117°
2026-04-17 11:44 50.52481 9.77650 37231 ft 485 kts 117°
2026-04-17 11:45 50.49298 9.86977 37234 ft 485 kts 117°
2026-04-17 11:45 50.46107 9.96295 37233 ft 484 kts 117°
2026-04-17 11:46 50.42933 10.05531 37229 ft 484 kts 117°
2026-04-17 11:46 50.39735 10.14804 37242 ft 483 kts 117°
2026-04-17 11:47 50.36533 10.24058 37253 ft 484 kts 117°
2026-04-17 11:47 50.33506 10.33469 37250 ft 484 kts 112°
2026-04-17 11:48 50.30810 10.43051 37247 ft 485 kts 112°
2026-04-17 11:48 50.28112 10.52726 37247 ft 486 kts 112°
2026-04-17 11:49 50.25373 10.62381 37243 ft 487 kts 112°
2026-04-17 11:49 50.22597 10.72045 37248 ft 488 kts 112°
2026-04-17 11:50 50.19803 10.81712 37249 ft 489 kts 112°
2026-04-17 11:50 50.17019 10.91311 37242 ft 489 kts 112°
2026-04-17 11:51 50.14208 11.00971 37242 ft 489 kts 112°
2026-04-17 11:51 50.11389 11.10620 37226 ft 489 kts 112°
2026-04-17 11:52 50.08564 11.20251 37242 ft 488 kts 112°
2026-04-17 11:52 50.05734 11.29858 37241 ft 488 kts 112°
2026-04-17 11:53 50.02922 11.39368 37241 ft 487 kts 112°
2026-04-17 11:53 50.00085 11.48922 37250 ft 487 kts 112°
2026-04-17 11:54 49.97242 11.58464 37236 ft 486 kts 112°
2026-04-17 11:54 49.94392 11.67989 37235 ft 486 kts 112°
2026-04-17 11:55 49.91555 11.77437 37236 ft 487 kts 113°
2026-04-17 11:55 49.88683 11.86960 37233 ft 488 kts 113°
2026-04-17 11:56 49.85799 11.96487 37232 ft 489 kts 113°
2026-04-17 11:56 49.82897 12.06037 37224 ft 490 kts 113°
2026-04-17 11:57 49.79983 12.15589 37225 ft 491 kts 113°
2026-04-17 11:57 49.77080 12.25069 37220 ft 490 kts 113°
2026-04-17 11:58 49.74153 12.34593 37239 ft 490 kts 113°
2026-04-17 11:58 49.71228 12.44078 37231 ft 488 kts 113°
2026-04-17 11:59 49.69150 12.53936 37254 ft 482 kts 98°
2026-04-17 11:59 49.67860 12.64042 37247 ft 485 kts 98°
2026-04-17 12:00 49.66466 12.74231 37251 ft 485 kts 99°
2026-04-17 12:00 49.64296 12.84103 37253 ft 490 kts 115°
2026-04-17 12:01 49.60578 12.92923 37257 ft 491 kts 124°
2026-04-17 12:01 49.56658 13.01459 37241 ft 491 kts 124°
2026-04-17 12:02 49.52755 13.10068 37250 ft 490 kts 123°
2026-04-17 12:02 49.48878 13.18708 37243 ft 490 kts 123°
2026-04-17 12:03 49.45003 13.27342 37234 ft 491 kts 123°
2026-04-17 12:03 49.41120 13.35958 37227 ft 490 kts 123°
2026-04-17 12:04 49.37255 13.44499 37241 ft 490 kts 123°
2026-04-17 12:04 49.33357 13.53089 37243 ft 491 kts 123°
2026-04-17 12:05 49.29451 13.61670 37243 ft 491 kts 123°
2026-04-17 12:05 49.25471 13.70191 37245 ft 492 kts 125°
2026-04-17 12:06 49.21434 13.78572 37241 ft 493 kts 125°
2026-04-17 12:06 49.17366 13.87006 37259 ft 493 kts 125°
2026-04-17 12:07 49.13305 13.95439 37243 ft 493 kts 124°
2026-04-17 12:07 49.09216 14.03921 36625 ft 500 kts 125°
2026-04-17 12:08 49.07157 14.08180 36064 ft 497 kts 125°
2026-04-17 12:08 49.05101 14.12425 35408 ft 498 kts 125°
2026-04-17 12:08 49.03068 14.16617 34774 ft 499 kts 125°
2026-04-17 12:08 49.01001 14.20872 34047 ft 501 kts 125°
2026-04-17 12:09 48.98924 14.25142 33287 ft 502 kts 124°
2026-04-17 12:09 48.96841 14.29416 32544 ft 503 kts 124°
2026-04-17 12:09 48.94760 14.33680 31805 ft 503 kts 124°
2026-04-17 12:09 48.92650 14.37941 31030 ft 505 kts 125°
2026-04-17 12:10 48.90521 14.42164 30520 ft 500 kts 125°
2026-04-17 12:10 48.88412 14.46322 29915 ft 496 kts 125°
2026-04-17 12:10 48.86343 14.50393 29320 ft 491 kts 125°
2026-04-17 12:10 48.84274 14.54471 28788 ft 484 kts 125°
2026-04-17 12:11 48.82230 14.58502 28266 ft 479 kts 125°
2026-04-17 12:11 48.80208 14.62490 27699 ft 474 kts 125°
2026-04-17 12:11 48.78208 14.66432 27176 ft 469 kts 125°
2026-04-17 12:12 48.74261 14.74197 26124 ft 461 kts 125°
2026-04-17 12:12 48.72337 14.77969 25609 ft 457 kts 126°
2026-04-17 12:12 48.70403 14.81747 25179 ft 451 kts 126°
2026-04-17 12:12 48.68487 14.85482 24680 ft 447 kts 126°
2026-04-17 12:13 48.66588 14.89177 24186 ft 444 kts 126°
2026-04-17 12:13 48.64697 14.92856 23641 ft 442 kts 126°
2026-04-17 12:13 48.62815 14.96513 23055 ft 439 kts 126°
2026-04-17 12:13 48.60947 15.00137 22512 ft 435 kts 126°
2026-04-17 12:14 48.59169 15.03801 21978 ft 429 kts 117°
2026-04-17 12:14 48.58114 15.07932 21524 ft 417 kts 100°
2026-04-17 12:14 48.57437 15.12166 21029 ft 414 kts 100°
2026-04-17 12:14 48.56763 15.16315 20529 ft 411 kts 100°
2026-04-17 12:15 48.56068 15.20485 20032 ft 408 kts 101°
2026-04-17 12:15 48.55364 15.24623 19536 ft 406 kts 101°
2026-04-17 12:15 48.54657 15.28722 19058 ft 403 kts 101°
2026-04-17 12:15 48.53947 15.32813 18578 ft 401 kts 101°
2026-04-17 12:16 48.53242 15.36869 18021 ft 399 kts 101°
2026-04-17 12:16 48.52537 15.40905 17506 ft 396 kts 101°
2026-04-17 12:16 48.51879 15.44913 17094 ft 389 kts 96°
2026-04-17 12:16 48.51564 15.48885 16956 ft 376 kts 90°
2026-04-17 12:17 48.51411 15.52758 16775 ft 377 kts 89°
2026-04-17 12:17 48.51263 15.56748 16611 ft 384 kts 90°
2026-04-17 12:17 48.51070 15.60781 16405 ft 385 kts 91°
2026-04-17 12:17 48.50848 15.64790 16221 ft 382 kts 91°
2026-04-17 12:18 48.50616 15.68763 16029 ft 379 kts 91°
2026-04-17 12:18 48.50382 15.72711 15852 ft 377 kts 91°
2026-04-17 12:18 48.50150 15.76640 15684 ft 376 kts 91°
2026-04-17 12:18 48.49919 15.80559 15500 ft 375 kts 91°
2026-04-17 12:19 48.49688 15.84462 15314 ft 374 kts 92°
2026-04-17 12:19 48.49534 15.87052 15194 ft 374 kts 92°
2026-04-17 12:19 48.49225 15.92214 14955 ft 373 kts 92°
2026-04-17 12:19 48.48991 15.96104 14778 ft 372 kts 92°
2026-04-17 12:20 48.48757 15.99987 14594 ft 371 kts 92°
2026-04-17 12:20 48.48522 16.03859 14421 ft 370 kts 92°
2026-04-17 12:20 48.48285 16.07720 14237 ft 369 kts 92°
2026-04-17 12:20 48.48129 16.10272 14123 ft 368 kts 92°
2026-04-17 12:21 48.47945 16.14105 13931 ft 367 kts 90°
2026-04-17 12:21 48.47804 16.17932 13748 ft 365 kts 90°
2026-04-17 12:21 48.47672 16.21742 13556 ft 363 kts 90°
2026-04-17 12:21 48.47492 16.26761 13320 ft 362 kts 91°
2026-04-17 12:22 48.47349 16.30539 13144 ft 361 kts 91°
2026-04-17 12:22 48.47203 16.34308 12972 ft 360 kts 91°
2026-04-17 12:22 48.47104 16.36801 12856 ft 359 kts 91°
2026-04-17 12:22 48.46954 16.40557 12686 ft 359 kts 91°
2026-04-17 12:23 48.46803 16.44298 12508 ft 358 kts 91°
2026-04-17 12:23 48.46649 16.48050 12343 ft 358 kts 91°
2026-04-17 12:23 48.46311 16.51754 12134 ft 361 kts 106°
2026-04-17 12:23 48.44511 16.55929 11932 ft 363 kts 137°
2026-04-17 12:24 48.42407 16.57981 11764 ft 362 kts 159°
2026-04-17 12:24 48.40791 16.58779 11675 ft 361 kts 165°
2026-04-17 12:24 48.38399 16.59759 11485 ft 361 kts 166°
2026-04-17 12:24 48.35969 16.60720 11310 ft 361 kts 166°
2026-04-17 12:25 48.33543 16.61699 11129 ft 361 kts 165°
2026-04-17 12:25 48.31141 16.62694 10950 ft 354 kts 165°
2026-04-17 12:25 48.28813 16.63673 10777 ft 343 kts 165°
2026-04-17 12:25 48.26549 16.64627 10603 ft 333 kts 165°
2026-04-17 12:26 48.24348 16.65553 10475 ft 323 kts 165°
2026-04-17 12:26 48.22224 16.66444 10398 ft 311 kts 165°
2026-04-17 12:26 48.20174 16.67303 10326 ft 301 kts 165°
2026-04-17 12:26 48.18180 16.68137 9994 ft 300 kts 165°
2026-04-17 12:27 48.16204 16.68964 9807 ft 294 kts 165°
2026-04-17 12:27 48.14244 16.69783 9539 ft 292 kts 165°
2026-04-17 12:27 48.12306 16.70593 9373 ft 286 kts 165°
2026-04-17 12:27 48.10398 16.71389 9221 ft 285 kts 165°
2026-04-17 12:28 48.08476 16.72188 8961 ft 290 kts 165°
2026-04-17 12:28 48.06521 16.73001 8586 ft 292 kts 165°
2026-04-17 12:28 48.04564 16.73814 8285 ft 292 kts 165°
2026-04-17 12:28 48.02634 16.74616 8238 ft 284 kts 165°
2026-04-17 12:29 48.00756 16.75397 8229 ft 283 kts 165°
2026-04-17 12:29 47.98856 16.76184 8233 ft 283 kts 165°
2026-04-17 12:29 47.96957 16.76972 8226 ft 284 kts 165°
2026-04-17 12:29 47.95030 16.77769 7961 ft 292 kts 165°
2026-04-17 12:30 47.93082 16.78574 7622 ft 288 kts 165°
2026-04-17 12:30 47.91184 16.79358 7335 ft 276 kts 165°
2026-04-17 12:30 47.89372 16.80106 7000 ft 265 kts 165°
2026-04-17 12:30 47.87628 16.80824 6621 ft 257 kts 165°
2026-04-17 12:31 47.85946 16.81516 6179 ft 252 kts 165°
2026-04-17 12:31 47.84270 16.82206 5744 ft 248 kts 165°
2026-04-17 12:31 47.82599 16.82463 5428 ft 236 kts 195°
2026-04-17 12:31 47.81281 16.81292 5240 ft 215 kts 232°
2026-04-17 12:32 47.80540 16.79411 4827 ft 209 kts 256°
2026-04-17 12:32 47.80359 16.77356 4692 ft 199 kts 280°
2026-04-17 12:32 47.80702 16.75386 4559 ft 197 kts 298°
2026-04-17 12:32 47.81498 16.73745 4438 ft 196 kts 319°
2026-04-17 12:33 47.82472 16.72385 4313 ft 194 kts 320°
2026-04-17 12:33 47.83464 16.71003 4186 ft 196 kts 319°
2026-04-17 12:33 47.84479 16.69639 4072 ft 196 kts 327°
2026-04-17 12:33 47.85732 16.68954 3968 ft 192 kts 350°
2026-04-17 12:34 47.87033 16.68460 3855 ft 194 kts 343°
2026-04-17 12:34 47.88329 16.67876 3728 ft 193 kts 343°
2026-04-17 12:34 47.89580 16.67326 3605 ft 184 kts 344°
2026-04-17 12:34 47.90794 16.66804 3493 ft 180 kts 344°
2026-04-17 12:35 47.91986 16.66296 3414 ft 176 kts 345°
2026-04-17 12:35 47.93149 16.65802 3283 ft 176 kts 345°
2026-04-17 12:35 47.94314 16.65308 3187 ft 174 kts 346°
2026-04-17 12:35 47.95513 16.64801 3077 ft 180 kts 345°
2026-04-17 12:37 48.02677 16.61737 1893 ft 139 kts 345°
2026-04-17 12:37 48.03612 16.61346 1739 ft 141 kts 346°
2026-04-17 12:38 48.04560 16.60941 1527 ft 142 kts 346°
2026-04-17 12:38 48.05526 16.60544 1284 ft 148 kts 346°
2026-04-17 12:38 48.06511 16.60124 1148 ft 144 kts 344°
2026-04-17 12:38 48.07478 16.59713 950 ft 145 kts 345°
2026-04-17 12:39 48.08420 16.59318 738 ft 139 kts 345°
2026-04-17 12:39 48.09325 16.58939 621 ft 128 kts 346°
2026-04-17 12:39 48.10072 16.58624 610 ft 90 kts 344°
2026-04-17 12:39 48.10498 16.58445 618 ft 45 kts 344°
2026-04-17 12:40 48.10725 16.58285 608 ft 33 kts 319°
2026-04-17 12:40 48.10846 16.58106 612 ft 23 kts 315°
2026-04-17 12:40 48.10955 16.57938 608 ft 22 kts 313°
2026-04-17 12:40 48.11051 16.57763 615 ft 22 kts 297°
2026-04-17 12:41 48.11114 16.57564 615 ft 21 kts 297°
2026-04-17 12:41 48.11178 16.57375 616 ft 20 kts 296°
2026-04-17 12:41 48.11237 16.57188 613 ft 20 kts 295°
2026-04-17 12:41 48.11296 16.57007 616 ft 19 kts 296°
2026-04-17 12:42 48.11353 16.56832 612 ft 18 kts 296°
2026-04-17 12:42 48.11408 16.56663 614 ft 18 kts 296°
2026-04-17 12:42 48.11462 16.56500 617 ft 17 kts 296°
2026-04-17 12:42 48.11514 16.56342 608 ft 17 kts 296°
2026-04-17 12:43 48.11569 16.56171 612 ft 19 kts 296°
2026-04-17 12:43 48.11631 16.55981 617 ft 21 kts 296°
2026-04-17 12:43 48.11698 16.55774 615 ft 23 kts 296°
2026-04-17 12:43 48.11766 16.55565 617 ft 17 kts 295°
2026-04-17 12:44 48.11806 16.55443 614 ft 5 kts 301°
2026-04-17 12:44 48.11813 16.55431 612 ft 1 kts 314°
2026-04-17 12:44 48.11815 16.55428 611 ft 0 kts 321°
2026-04-17 12:44 48.11818 16.55426 617 ft 2 kts 330°
2026-04-17 12:45 48.11847 16.55424 616 ft 8 kts
2026-04-17 12:45 48.11915 16.55440 608 ft 11 kts 14°
2026-04-17 12:45 48.11977 16.55481 614 ft 7 kts 26°
2026-04-17 12:45 48.11991 16.55537 620 ft 4 kts 97°
2026-04-17 12:46 48.11987 16.55574 614 ft 3 kts 101°
2026-04-17 12:46 48.11985 16.55585 608 ft 1 kts 100°
2026-04-17 12:46 48.11985 16.55588 608 ft 0 kts 100°